This is the latest recevied weather packets stored in our database for station/object K8BCO. If no packets are shown the sender has not sent any weather packets the latest 10 day(s).
| Time | Temp. | Humidity | Pressure | Rain* | Wind** | Luminosity | Snow |
|---|---|---|---|---|---|---|---|
| 1777929916 | 15.56° C | 44% | 993.2 hPa | 0 mm | - | 567 W/m² | - |
| 1777929316 | 15.56° C | 45% | 993 hPa | 0 mm | - | 597 W/m² | - |
| 1777928717 | 16.11° C | 45% | 992.9 hPa | 0 mm | - | 627 W/m² | - |
| 1777928117 | 16.11° C | 46% | 992.7 hPa | 0 mm | - | 652 W/m² | - |
| 1777927517 | 16.11° C | 46% | 992.6 hPa | 0 mm | - | 681 W/m² | - |
| 1777926917 | 16.11° C | 46% | 992.3 hPa | 0 mm | - | 709 W/m² | - |
| 1777926317 | 16.67° C | 44% | 992.3 hPa | 0 mm | - | 732 W/m² | - |
| 1777925717 | 17.22° C | 44% | 992.2 hPa | 0 mm | - | 755 W/m² | - |
| 1777925117 | 17.22° C | 44% | 992.1 hPa | 0 mm | - | 777 W/m² | - |
| 1777924518 | 17.22° C | 45% | 992.1 hPa | 0 mm | - | 809 W/m² | - |
| 1777923918 | 17.22° C | 45% | 992 hPa | 0 mm | - | 818 W/m² | - |
| 1777923318 | 17.22° C | 45% | 991.9 hPa | 0 mm | - | 849 W/m² | - |
| 1777922718 | 17.22° C | 45% | 991.9 hPa | 0 mm | - | 847 W/m² | - |
| 1777922118 | 17.22° C | 45% | 991.9 hPa | 0 mm | - | 868 W/m² | - |
| 1777921516 | 17.22° C | 45% | 991.9 hPa | 0 mm | - | 884 W/m² | - |
| 1777920916 | 17.22° C | 46% | 991.8 hPa | 0 mm | - | 911 W/m² | - |
| 1777920316 | 17.22° C | 47% | 991.8 hPa | 0 mm | - | 900 W/m² | - |
| 1777919716 | 17.22° C | 48% | 991.9 hPa | 0 mm | - | 926 W/m² | - |
| 1777919116 | 17.22° C | 46% | 991.6 hPa | 0 mm | - | 856 W/m² | - |
| 1777918516 | 16.67° C | 45% | 991.5 hPa | 0 mm | - | 934 W/m² | - |
| 1777917916 | 16.67° C | 46% | 991.6 hPa | 0 mm | - | 961 W/m² | - |
| 1777917317 | 16.11° C | 48% | 991.8 hPa | 0 mm | - | 742 W/m² | - |
| 1777916717 | 16.11° C | 49% | 991.9 hPa | 0 mm | - | 782 W/m² | - |
| 1777916117 | 16.11° C | 49% | 991.7 hPa | 0 mm | - | 944 W/m² | - |
| 1777915517 | 15.56° C | 50% | 991.6 hPa | 0 mm | - | 921 W/m² | - |
* Rain latest hour (hover to see other rain measurements)
** Current wind speed in m/s (hover to see current wind gust speed)